| time (UTC) | temp F | wind direction | speed MPH | gust MPH | rain 1hr in | rain 24hr in | rain mn in | humidity % | barometer mb |
| 20260505214608 | 56 | 65 | 0.0 | 2.0 | 0.00 | 0.00 | 0.00 | 93 | 1006.9 |
| 20260505213608 | 56 | 140 | 0.0 | 1.0 | 0.00 | 0.00 | 0.00 | 93 | 1007.1 |
| 20260505212608 | 57 | 138 | 0.0 | 1.0 | 0.00 | 0.00 | 0.00 | 92 | 1006.9 |
| 20260505210609 | 58 | 127 | 0.0 | 0.0 | 0.00 | 0.00 | 0.00 | 90 | 1007.0 |
| 20260505205608 | 58 | 149 | 0.0 | 1.0 | 0.00 | 0.00 | 0.00 | 90 | 1007.0 |
| 20260505204608 | 59 | 142 | 0.0 | 2.0 | 0.00 | 0.00 | 0.00 | 89 | 1006.9 |
| 20260505203608 | 59 | 141 | 0.0 | 1.0 | 0.00 | 0.00 | 0.00 | 88 | 1007.1 |
| 20260505202608 | 60 | 123 | 1.0 | 2.0 | 0.00 | 0.00 | 0.00 | 87 | 1006.9 |
| 20260505200608 | 61 | 130 | 0.0 | 1.0 | 0.00 | 0.00 | 0.00 | 85 | 1007.1 |
| 20260505195608 | 62 | 97 | 0.0 | 2.0 | 0.00 | 0.00 | 0.00 | 84 | 1007.0 |
| 20260505194608 | 62 | 105 | 0.0 | 3.0 | 0.00 | 0.00 | 0.00 | 82 | 1006.9 |
| 20260505193608 | 62 | 139 | 0.0 | 2.0 | 0.00 | 0.00 | 0.00 | 83 | 1006.8 |
| 20260505192608 | 62 | 134 | 0.0 | 1.0 | 0.00 | 0.00 | 0.00 | 83 | 1006.9 |
| 20260505190609 | 64 | 115 | 0.0 | 1.0 | 0.00 | 0.00 | 0.00 | 80 | 1006.8 |
| 20260505185607 | 65 | 142 | 1.0 | 3.0 | 0.00 | 0.00 | 0.00 | 78 | 1006.7 |
| 20260505184609 | 65 | 107 | 0.0 | 2.0 | 0.00 | 0.00 | 0.00 | 77 | 1006.8 |
| 20260505183607 | 66 | 67 | 1.0 | 2.0 | 0.00 | 0.00 | 0.00 | 76 | 1006.2 |
| 20260505182608 | 66 | 141 | 0.0 | 2.0 | 0.00 | 0.00 | 0.00 | 74 | 1006.4 |
| 20260505181607 | 67 | 125 | 0.0 | 2.0 | 0.00 | 0.00 | 0.00 | 72 | 1006.1 |
| 20260505180607 | 69 | 41 | 0.0 | 3.0 | 0.00 | 0.00 | 0.00 | 67 | 1006.2 |
| 20260505175607 | 67 | 150 | 1.0 | 2.0 | 0.00 | 0.00 | 0.00 | 61 | 1006.0 |
| 20260505174608 | 67 | 152 | 0.0 | 0.0 | 0.00 | 0.00 | 0.00 | 51 | 1005.7 |
| 20260505173608 | 69 | 147 | 0.0 | 0.0 | 0.00 | 0.00 | 0.00 | 49 | 1006.0 |
| 20260505171607 | 73 | 142 | 0.0 | 1.0 | 0.00 | 0.00 | 0.00 | 41 | 1005.9 |
| 20260505170607 | 74 | 177 | 1.0 | 3.0 | 0.00 | 0.00 | 0.00 | 40 | 1005.8 |
| 20260505165608 | 75 | 180 | 0.0 | 2.0 | 0.00 | 0.00 | 0.00 | 39 | 1005.8 |
| 20260505164608 | 76 | 139 | 0.0 | 2.0 | 0.00 | 0.00 | 0.00 | 36 | 1005.9 |
| 20260505163608 | 78 | 149 | 0.0 | 3.0 | 0.00 | 0.00 | 0.00 | 33 | 1005.9 |
| 20260505162608 | 79 | 150 | 1.0 | 7.0 | 0.00 | 0.00 | 0.00 | 32 | 1006.1 |
| 20260505161607 | 79 | 97 | 3.0 | 6.0 | 0.00 | 0.00 | 0.00 | 30 | 1005.8 |
| 20260505160608 | 80 | 140 | 2.0 | 10.0 | 0.00 | 0.00 | 0.00 | 32 | 1005.9 |
| 20260505152608 | 80 | 243 | 4.0 | 9.0 | 0.00 | 0.00 | 0.00 | 28 | 1006.0 |
| 20260505151608 | 82 | 146 | 3.0 | 11.0 | 0.00 | 0.00 | 0.00 | 26 | 1005.9 |
| 20260505140608 | 82 | 262 | 2.0 | 7.0 | 0.00 | 0.00 | 0.00 | 28 | 1006.5 |
| 20260505123609 | 79 | 165 | 1.0 | 6.0 | 0.00 | 0.00 | 0.00 | 34 | 1007.3 |
| 20260505122608 | 79 | 140 | 1.0 | 9.0 | 0.00 | 0.00 | 0.00 | 30 | 1007.5 |
| 20260505121608 | 81 | 138 | 3.0 | 9.0 | 0.00 | 0.00 | 0.00 | 30 | 1007.5 |
| 20260505115608 | 80 | 112 | 3.0 | 9.0 | 0.00 | 0.00 | 0.00 | 42 | 1007.6 |
| 20260505114608 | 80 | 195 | 4.0 | 9.0 | 0.00 | 0.00 | 0.00 | 38 | 1007.8 |
| 20260505113608 | 81 | 144 | 3.0 | 6.0 | 0.00 | 0.00 | 0.00 | 43 | 1007.8 |
| 20260505112607 | 77 | 131 | 4.0 | 6.0 | 0.00 | 0.00 | 0.00 | 37 | 1007.8 |
| 20260505111608 | 78 | 153 | 1.0 | 6.0 | 0.00 | 0.00 | 0.00 | 43 | 1008.0 |
| 20260505110620 | 79 | 129 | 1.0 | 4.0 | 0.00 | 0.00 | 0.00 | 42 | 1008.3 |
| 20260505101608 | 76 | 320 | 1.0 | 4.0 | 0.00 | 0.00 | 0.00 | 41 | 1008.8 |
| 20260505100608 | 76 | 151 | 3.0 | 7.0 | 0.00 | 0.00 | 0.00 | 45 | 1008.9 |
| 20260505095608 | 78 | 165 | 3.0 | 7.0 | 0.00 | 0.00 | 0.00 | 44 | 1009.2 |
| 20260505094608 | 76 | 124 | 1.0 | 6.0 | 0.00 | 0.00 | 0.00 | 42 | 1009.1 |
| 20260505092607 | 75 | 113 | 0.0 | 7.0 | 0.00 | 0.00 | 0.00 | 45 | 1009.7 |
| 20260505091608 | 75 | 119 | 4.0 | 8.0 | 0.00 | 0.00 | 0.00 | 45 | 1009.7 |
| 20260505085608 | 74 | 104 | 2.0 | 7.0 | 0.00 | 0.00 | 0.00 | 46 | 1009.7 |
| 20260505084608 | 75 | 143 | 4.0 | 4.0 | 0.00 | 0.00 | 0.00 | 47 | 1010.1 |
| 20260505083608 | 76 | 114 | 1.0 | 6.0 | 0.00 | 0.00 | 0.00 | 44 | 1009.9 |
| 20260505081607 | 73 | 131 | 2.0 | 6.0 | 0.00 | 0.00 | 0.00 | 50 | 1010.2 |
| 20260505080608 | 72 | 332 | 1.0 | 4.0 | 0.00 | 0.00 | 0.00 | 46 | 1009.9 |
| 20260505075609 | 72 | 134 | 2.0 | 4.0 | 0.00 | 0.00 | 0.00 | 50 | 1010.3 |
| 20260505073607 | 71 | 340 | 1.0 | 4.0 | 0.00 | 0.00 | 0.00 | 53 | 1010.3 |
| 20260505070609 | 70 | 116 | 1.0 | 4.0 | 0.00 | 0.00 | 0.00 | 55 | 1010.3 |
| 20260505064607 | 67 | 132 | 0.0 | 6.0 | 0.00 | 0.00 | 0.00 | 59 | 1010.4 |
| 20260505063607 | 67 | 131 | 2.0 | 6.0 | 0.00 | 0.00 | 0.00 | 58 | 1010.5 |
| 20260505062610 | 66 | 135 | 3.0 | 4.0 | 0.00 | 0.00 | 0.00 | 59 | 1010.5 |
| 20260505061608 | 66 | 136 | 3.0 | 4.0 | 0.00 | 0.00 | 0.00 | 62 | 1010.3 |
| 20260505055608 | 65 | 136 | 1.0 | 2.0 | 0.00 | 0.00 | 0.00 | 63 | 1010.6 |
| 20260505054608 | 64 | 138 | 2.0 | 4.0 | 0.00 | 0.00 | 0.00 | 65 | 1010.6 |
| 20260505053608 | 63 | 136 | 2.0 | 3.0 | 0.00 | 0.00 | 0.00 | 69 | 1010.8 |
| 20260505052608 | 62 | 135 | 0.0 | 1.0 | 0.00 | 0.00 | 0.00 | 74 | 1010.7 |
| 20260505051608 | 62 | 135 | 0.0 | 1.0 | 0.00 | 0.00 | 0.00 | 77 | 1010.7 |
| 20260505050609 | 61 | 135 | 0.0 | 0.0 | 0.00 | 0.00 | 0.00 | 80 | 1010.9 |
| 20260505041611 | 50 | 135 | 0.0 | 0.0 | 0.00 | 0.00 | 0.00 | 99 | 1010.8 |
| 20260505040609 | 49 | 136 | 0.0 | 0.0 | 0.00 | 0.00 | 0.00 | 99 | 1011.0 |
| 20260505035609 | 48 | 137 | 0.0 | 0.0 | 0.00 | 0.00 | 0.00 | 99 | 1011.1 |
| 20260505033609 | 48 | 135 | 0.0 | 0.0 | 0.00 | 0.00 | 0.00 | 99 | 1010.8 |
| 20260505032608 | 48 | 129 | 0.0 | 0.0 | 0.00 | 0.00 | 0.00 | 99 | 1011.0 |
| 20260505031608 | 48 | 136 | 0.0 | 0.0 | 0.00 | 0.00 | 0.00 | 98 | 1010.8 |
| 20260505030610 | 48 | 135 | 0.0 | 0.0 | 0.00 | 0.00 | 0.00 | 98 | 1010.9 |
| 20260505025608 | 49 | 135 | 0.0 | 0.0 | 0.00 | 0.00 | 0.00 | 98 | 1010.8 |
| 20260505023608 | 49 | 135 | 0.0 | 0.0 | 0.00 | 0.00 | 0.00 | 97 | 1011.0 |
| 20260505022608 | 49 | 135 | 0.0 | 0.0 | 0.00 | 0.00 | 0.00 | 97 | 1011.3 |
| 20260505021608 | 49 | 135 | 0.0 | 0.0 | 0.00 | 0.00 | 0.00 | 96 | 1011.2 |
| 20260505020607 | 50 | 135 | 0.0 | 0.0 | 0.00 | 0.00 | 0.00 | 96 | 1011.0 |
| 20260505015606 | 50 | 135 | 0.0 | 0.0 | 0.00 | 0.00 | 0.00 | 96 | 1011.4 |
| 20260505014605 | 50 | 135 | 0.0 | 0.0 | 0.00 | 0.00 | 0.00 | 96 | 1011.4 |
| 20260505012606 | 51 | 135 | 0.0 | 0.0 | 0.00 | 0.00 | 0.00 | 97 | 1011.4 |
| 20260505011607 | 50 | 136 | 0.0 | 0.0 | 0.00 | 0.00 | 0.00 | 97 | 1011.3 |
| 20260505005557 | 50 | 137 | 0.0 | 0.0 | 0.00 | 0.00 | 0.00 | 97 | 1011.6 |
| 20260505003555 | 50 | 138 | 0.0 | 0.0 | 0.00 | 0.00 | 0.00 | 97 | 1011.6 |
| 20260505002555 | 49 | 138 | 0.0 | 0.0 | 0.00 | 0.00 | 0.00 | 96 | 1011.6 |
| 20260504235555 | 50 | 138 | 0.0 | 0.0 | 0.00 | 0.00 | 0.00 | 96 | 1011.8 |
| 20260504234557 | 49 | 138 | 0.0 | 0.0 | 0.00 | 0.00 | 0.00 | 95 | 1012.1 |
| 20260504233555 | 50 | 138 | 0.0 | 0.0 | 0.00 | 0.00 | 0.00 | 95 | 1012.1 |
| 20260504232554 | 50 | 138 | 0.0 | 0.0 | 0.00 | 0.00 | 0.00 | 95 | 1011.9 |
| 20260504231555 | 50 | 138 | 0.0 | 0.0 | 0.00 | 0.00 | 0.00 | 95 | 1012.1 |
| 20260504230555 | 51 | 138 | 0.0 | 0.0 | 0.00 | 0.00 | 0.00 | 94 | 1012.3 |
| 20260504225555 | 51 | 138 | 0.0 | 0.0 | 0.00 | 0.00 | 0.00 | 94 | 1012.3 |
| 20260504224555 | 51 | 138 | 0.0 | 0.0 | 0.00 | 0.00 | 0.00 | 93 | 1012.2 |
| 20260504222555 | 51 | 140 | 0.0 | 0.0 | 0.00 | 0.00 | 0.00 | 92 | 1012.3 |
| 20260504221555 | 51 | 140 | 0.0 | 0.0 | 0.00 | 0.00 | 0.00 | 91 | 1012.5 |
| 20260504220554 | 52 | 140 | 0.0 | 0.0 | 0.00 | 0.00 | 0.00 | 90 | 1013.0 |